Location: Unspecified
(0.0000°N, 0.0000°E)
Time: 06:04:16
(UTC+00:00)

Transit 4A - Pass Details

Date: 01 October 2020
Orbit: 862 x 982 km, 66.8° (Epoch: 28 October)

Event Time Altitude Azimuth Distance (km) Brightness Sun altitude
Rises 08:31:15 0° 322° (NW) 3,642 10.7 40.3°
Reaches altitude 10° 08:34:05 10° 312° (NW) 2,683 10.0 41.0°
Maximum altitude 08:39:34 32° 251° (WSW) 1,547 9.0 42.4°
Drops below altitude 10° 08:44:57 10° 189° (S) 2,621 10.3 43.7°
Sets 08:47:43 0° 179° (S) 3,545 11.0 44.4°
